Showing default

QIANFAN-94, 66036

Orbit data source: Space-Track

QIANFAN-94, 66036 is a Chinese payload satellite in LEO that was launched on Fri, 17 Oct 2025 UTC via a CHANG ZHENG 6A launch vehicle from the Taiyaun Space Center, China (TSC). Payload-class satellites include a variety of spacecraft equipped with specific instruments for various scientific and technological missions. These include communications satellites like Starlink; space stations such as the ISS; scientific satellites like the Hubble; Earth observation satellites from companies like Planet Labs, Umbra, and HawkEye 360; GPS; miniature CubeSats for education and research; and military/defense satellites.

Loading next visibility...
Identifier
66036, 2025-233D
Orbit
LEO
Country
Flag of CNCN / PRC
Related business
Manufacturer
SECM
Mission
Operational Commercial Communications
Bus & Motor
QIANFAN, Unknown motor
Mass
267 kg wet, ~267 kg dry
Launch date (UTC)
2025-10-17 (8 months ago)
Launch vehicle
CHANG ZHENG 6A
Launch site
Taiyaun Space Center, China (TSC)
Object type
Payload
Rocket body
Debris
Shape & HBR
Box + 1 Pan, 14.5 m
Radar Cross Section
13.200 m², Large (>1 m²)

Expand to show TLE details & history
Last TLE update: 17 hours ago

TLE from 17 hours ago
0 QIANFAN-94
1 66036U 25233D   26177.32110564  .00000115  00000-0  15908-3 0  9994
2 66036  89.0003  42.1949 0002004  84.2049 275.9331 13.51013289 34465
Epoch: 2026-06-26T07:42Z
TLE epoch observation values (Epoch: 2026-06-26T07:42:23.527Z)
Latitude
0.00003°
Longitude
12.14558°
Altitude
1,071.332 km
Speed
7.316 km/s
True Right ascension
02h 48m 46s
True Declination
0° 00' 00"
Sunlit
Object was in daylight at epoch
Visualization orbit readout
Latitude
Unknown
Longitude
Unknown
Altitude
Unknown
Speed
Unknown
Apparent Right ascension
Unknown
Apparent Declination
Unknown
Sunlit
N/A
Visualization observer readout
Local Sidereal Time
12:10:40
Azimuth
Unknown
Elevation
Unknown
Doppler factor
Unknown
Orbital elements
Apogee altitude
1,067.075 km
Perigee altitude
1,064.092 km
Semi-major axis
7,443.721 km
Eccentricity
0.0002
Inclination
89.0003°
RAAN
42.1949°
Arg. of periapsis
84.2049°
True anomaly
275.91026°
Mean anomaly
275.9331°
Eccentric anomaly
275.92168°
Mean motion
3.37954 °/min
Orbital period
106.52 mins
BSTAR
0.00015908
Loading maneuver chart data...
Computing Atmospheric mass density...
Loading historical data...
Loading historical data...
Loading historical data...
Loading historical data...
Loading historical data...
Loading historical data...
Loading historical data...

Documentation

Showing up to 5 results
|